Regional Weather Roundup
Issued by NWS

Home | Current Version | Previous Version | Graphics & Text | Print | Product List | Glossary On
Versions: 1 2 3 4 5 6 7 8 9 10 11 12 13 14 15 16 17 18 19 20 21 22 23 24 25 26 27 28 29 30 31 32 33 34 35 36 37 38 39 40 41 42 43 44 45 46 47 48 49 50
000
ASUS43 KIND 070309
RWRIN

WEATHER ROUNDUP FOR INDIANA
NATIONAL WEATHER SERVICE INDIANAPOLIS IN
1100 PM EDT MON JUL 06 2015

NOTE: "FAIR" INDICATES FEW OR NO CLOUDS BELOW 12,000 FEET WITH NO
SIGNIFICANT WEATHER AND/OR OBSTRUCTIONS TO VISIBILITY.

* - STATION DOES NOT REPORT WEATHER SUCH AS PRECIPITATION OR FOG.

+ - STATION NOT QUALITY CONTROLLED BY THE NATIONAL WEATHER SERVICE.
    USE DATA WITH CAUTION...ESPECIALLY DEWPOINT AND RELATIVE
    HUMIDITY OBSERVATIONS.

INZ001>003-010>013-019-020-070400-
NORTHWEST INDIANA

CITY           SKY/WX    TMP DP  RH WIND       PRES   REMARKS
GARY /AIRPORT/ MOCLDY   N/A N/A N/A S6        29.88R
KNOX *+        CLOUDY    77  70  78 S6        29.90R
LA PORTE +     CLOUDY    74  74  99 S5        29.92R
MICHIGAN CITY+ CLOUDY    73  68  83 S9        29.90R
MONTICELLO +   CLOUDY    78  73  84 S6        29.93R
RENSSELAER +   CLOUDY    79  73  83 S8        29.91S
VALPARAISO     CLOUDY    75  70  84 S6        29.90R

$$

LMZ046-743>745-070400-
SOUTHERN LAKE MICHIGAN

STATION/POSITION TIME  TEMP    WIND        PRES    WAVE
                       AIR SEA DIR/SP/G            HT
                 (UTC) (F)     (DEG/KT/KT) (MB)    (FT)
BURNS HARBOR     0300   76     190/ 11/ 15 1012.2S
MICHIGAN CITY    0300   76     150/ 13/ 17   N/A
5NW MICH CITY    0300   73 68  190/ 10/ 12   N/A     1

$$

INZ004-005-014>016-021>024-070400-
NORTH CENTRAL INDIANA

CITY           SKY/WX    TMP DP  RH WIND       PRES   REMARKS
GOSHEN         CLOUDY    78  68  71 S9        29.92R
LOGANSPORT +   CLOUDY    75  66  73 S6        29.95R
PERU/GRISSOM   CLOUDY    77  70  79 S9        29.94R
ROCHESTER +    CLOUDY    79  72  78 S8        29.94R
SOUTH BEND     CLOUDY    78  68  71 S10       29.91R
WARSAW +         N/A     77  68  73 S6        29.94R

$$

INZ006>009-017-018-025>027-070400-
NORTHEAST INDIANA

CITY           SKY/WX    TMP DP  RH WIND       PRES   REMARKS
ANGOLA *+        N/A     75  70  83 S5        29.94R
AUBURN +       CLOUDY    77  64  65 SW5       29.96S
FORT WAYNE     CLOUDY    77  67  71 S14G20    29.96R
HUNTINGTON +   CLOUDY    76  68  76 S6        29.95S

$$

INZ028-029-035-036-043>045-051>053-070400-
WEST CENTRAL INDIANA

CITY           SKY/WX    TMP DP  RH WIND       PRES   REMARKS
CRAWFORDSVL +  CLOUDY    74  62  65 S6        29.96R
GREENCASTLE +  CLOUDY    72  64  78 CALM      29.99R
LAFAYETTE      CLOUDY    77  71  82 S6        29.93R
TERRE HAUTE    CLOUDY    73  70  90 SE3       29.96R

$$

INZ030>032-037>040-046>048-054>057-064-065-070400-
CENTRAL INDIANA

CITY           SKY/WX    TMP DP  RH WIND       PRES   REMARKS
CP ATTERBURY + MOCLDY    77  70  78 S7        30.00R
FRANKFORT +    CLOUDY    77  72  84 S5        29.98R
GREENWOOD *+   CLOUDY    77  68  73 S8        29.99R
INDIANAPOLIS   CLOUDY    78  69  73 S12       29.96S
-EAGLE CREEK   CLOUDY    78  71  79 S8        29.97R
KOKOMO *+      CLOUDY    79  68  69 SW8       29.95S
MARION +       CLOUDY    75  68  78 S8        29.97S HAZE
MT COMFORT *+  CLOUDY    75  68  78 S6        29.99R
SHELBYVILLE    CLOUDY    77  71  82 S6        29.99R
ZIONSVILLE +   CLOUDY    78  69  72 S8        29.98S

$$

INZ033-034-041-042-049-050-058-059-070400-
EAST CENTRAL INDIANA

CITY           SKY/WX    TMP DP  RH WIND       PRES   REMARKS
MUNCIE         CLOUDY    78  68  71 S7        29.99R

$$

INZ060-061-067>069-081>083-085>088-070400-
SOUTHWEST INDIANA

CITY           SKY/WX    TMP DP  RH WIND       PRES   REMARKS
EVANSVILLE     CLEAR     81  72  74 S8        29.99R
HUNTINGBURG *+ CLEAR     77  72  83 S5        30.00F
WASHINGTON +   PTCLDY    76  72  87 S3        29.98R

$$

INZ062-063-066-070>080-084-089>092-070400-
SOUTH CENTRAL AND SOUTHEAST INDIANA

CITY           SKY/WX    TMP DP  RH WIND       PRES   REMARKS
BLOOMINGTON    CLOUDY    77  72  84 S6        30.00R
MADISON *+     CLEAR     73  68  83 CALM      30.05R
NORTH VERNON + PTCLDY    75  75 100 S5        30.02R
SEYMOUR +      PTCLDY    75  72  88 S5        30.01R

$$




USA.gov is the U.S. government's official web portal to all federal, state and local government web resources and services.